Regional Weather Roundup
Issued by NWS

Home | Current Version | Previous Version | Graphics & Text | Print | Product List | Glossary On
Versions: 1 2 3 4 5 6 7 8 9 10 11 12 13 14 15 16 17 18 19 20 21 22 23 24 25 26 27 28 29 30 31 32 33 34 35 36 37 38 39 40 41 42 43 44 45 46 47 48 49 50
000
ASUS43 KDTX 271010
RWRMI
MICHIGAN HOURLY REGIONAL WEATHER ROUNDUP
NATIONAL WEATHER SERVICE DETROIT/PONTIAC MI
600 AM EDT MON MAR 27 2017

NOTE: "FAIR" INDICATES FEW OR NO CLOUDS BELOW 12,000 FEET WITH NO
SIGNIFICANT WEATHER AND/OR OBSTRUCTION TO VISIBILITY.

MIZ047>049-052>055-059>063-066>070-074>076-081>083-271100-
SOUTHEAST LOWER MICHIGAN

CITY           SKY/WX    TMP DP  RH WIND       PRES   REMARKS
ADRIAN         CLOUDY    51  50  96 W6        29.90R
ALMA           CLOUDY    51  51 100 SW9       29.84R FOG
ANN ARBOR      CLOUDY    50  50 100 SW5       29.88R
BAD AXE        FOG       48  48 100 SW6       29.83R VSB 1/4
CARO           CLOUDY    51  51 100 SW7       29.83R FOG
DETROIT CITY   CLOUDY    51  51 100 W6        29.88R FOG
DETROIT        CLOUDY    52  51  97 W6        29.90R FOG
FLINT          CLOUDY    52  50  93 W8        29.86R
GROSSE ILE     CLOUDY    50  49  99 W3        29.88R FOG
HILLSDALE      CLOUDY    50  48  93 W10       29.88R
HOWELL         CLOUDY    52  49  91 SW7       29.86R FOG

CITY           SKY/WX    TMP DP  RH WIND       PRES   REMARKS
JACKSON        CLOUDY    52  51  97 SW8       29.88R
LAMBERTVILLE   CLOUDY    54  51  90 W7        29.90R
LANSING        LGT RAIN  52  49  89 W9        29.87R
LAPEER         CLOUDY    51  50  98 SW6       29.85R FOG
MASON          CLOUDY    52  51  97 SW6       29.88R FOG
MONROE         CLOUDY    52  52 100 W8        29.88R FOG
MT. CLEMENS    CLOUDY    50  50 100 SW7       29.86R
PONTIAC        CLOUDY    51  49  92 SW6       29.86R FOG
PORT HOPE        N/A     49  48  97 SW6       29.80R
PORT HURON     FOG       48  46  93 S5        29.86R VSB 1/2
TRI CITIES     FOG       49  49 100 SW7       29.83R VSB 3/4
MIDLAND        SNOW      44  43  97 CALM      29.83R VSB 1/4
TROY           CLOUDY    51  49  95 CALM      29.89R FOG
SAGINAW HB     CLOUDY    52  48  87 SW7       29.83R FOG
$$
MIZ043>046-050>051-056>058-064>065-071>073-077>080-271100-
SOUTHWEST LOWER MICHIGAN

CITY           SKY/WX    TMP DP  RH WIND       PRES   REMARKS
BATTLE CREEK   CLOUDY    51  50  96 SW12      29.88R
BENTON HARBOR  FOG       45  43  93 SW6       29.90R VSB 1
BIG RAPIDS     CLOUDY    43  42  95 W7        29.84R
COLDWATER      CLOUDY    51  51 100 W8        29.89R
FREMONT        CLOUDY    40  40 100 W5        29.87R
HOLLAND        CLOUDY    40  40 100 W7        29.90R FOG
GRAND RAPIDS   CLOUDY    45  45 100 SW12      29.88R FOG
IONIA          CLOUDY    48  47  98 SW10      29.86R FOG
KALAMAZOO      CLOUDY    51  47  86 W10       29.89R
LUDINGTON      CLOUDY    37  37 100 NW3       29.87R
MARSHALL       DRIZZLE   51  51  98 SW6       29.88R
MOUNT PLEASANT FOG       44  43  97 CALM      29.82R VSB 1/4
MUSKEGON       LGT RAIN  39  38  96 W7        29.89R WCI  34
SOUTH HAVEN    CLOUDY    41  41  99 CALM      29.89F FOG
$$
MIZ016>042-271100-
NORTHERN LOWER MICHIGAN

CITY           SKY/WX    TMP DP  RH WIND       PRES   REMARKS
ALPENA         CLOUDY    39  39 100 CALM      29.81R
BEAVER ISLAND  CLOUDY    33  33 100 CALM      29.83R
BELLAIRE       CLOUDY    40  39  96 CALM      29.82R FOG
CADILLAC       CLOUDY    43  42  97 W8        29.81R FOG
CHARLEVOIX     FOG       34  34 100 NW3       29.86R VSB 1
FRANKFORT      CLOUDY    37  35  93 W3        29.86R FOG
GAYLORD        FOG       41  37  86 CALM      29.79R VSB 1/2
GRAYLING       FOG       39  39 100 CALM      29.81R VSB 1/4
HARBOR SPRINGS FOG       35  35 100 CALM      29.81R VSB 1/2
HOUGHTON LAKE  FOG       41  40  96 CALM      29.81R VSB 1/4
MANISTEE       CLOUDY    37  36  93 NW8       29.86S FOG     WCI  31
OSCODA         CLOUDY    41  41  97 CALM      29.81R FOG
PELLSTON       FOG       35  34  96 CALM      29.81R VSB 1/2
ROGERS CITY    CLOUDY    37  35  96 CALM      29.82R FOG
TRAVERSE CITY  CLOUDY    41  40  96 NW5       29.82R
$$
MIZ007>008-015-271100-
EASTERN UPPER MICHIGAN

CITY           SKY/WX    TMP DP  RH WIND       PRES   REMARKS
KINROSS        FOG      N/A N/A N/A N5        29.81S VSB 1/2
MACKINAC ISLAN FOG       32  32 100 N5        29.81R VSB 1   WCI  27
NEWBERRY       CLOUDY    32  31  96 N3        29.82S FOG
S. S. MARIE    LGT RAIN  36  34  92 CALM      29.81S
MUNISING         N/A     34  34 100 NW9       29.85R WCI  27
$$
MIZ004>006-011>014-085-271100-
CENTRAL UPPER MICHIGAN

CITY           SKY/WX    TMP DP  RH WIND       PRES   REMARKS
MANISTIQUE     CLOUDY    34  32  93 N6        29.83S WCI  29
ESCANABA       CLOUDY    34  33  96 NW5       29.87R WCI  30
MENOMINEE        N/A    N/A N/A N/A MISG        N/A
SAWYER-GWINN   CLOUDY    32  31  99 N9        29.86R FOG     WCI  24
$$
MIZ001>003-009>011-084-271100-
WESTERN UPPER MICHIGAN

CITY           SKY/WX    TMP DP  RH WIND       PRES   REMARKS
IRON MOUNTAIN  CLOUDY    34  31  88 NW5       29.86R WCI  30
HOUGHTON       CLOUDY    33  31  92 NW9       29.89R FOG     WCI  25
COPPER HARBOR    N/A     34  33  96 NE9       29.89R WCI  27
IRONWOOD       FOG       32  31  96 NW6       29.93R VSB 1/4 WCI  26
$$

ABBREVIATIONS USED IN REMARKS
   TC - TEMPERATURE IN CELSIUS
  WCI - WIND CHILL INDEX
   HX - HEAT INDEX
  VSB - VISIBILITY





USA.gov is the U.S. government's official web portal to all federal, state and local government web resources and services.